CAPE
8 3 2 3 1 7 7 8 3 1 2 3 4 4 6 10 11 7 2 0 0 0 0 0 0 15 23 5 0 0 0 0 0 0 0 0 0 0 0 0 0 0 0 0 0
5 8 3 2 4 12 7 5 7 6 9 6 3 4 10 9 4 2 0 0 0 0 0 0 0 22 26 8 3 0 0 0 0 0 0 0 0 0 0 0 0 0 0 0 0
6 3 5 3 5 8 8 5 3 4 6 10 2 15 16 1 0 0 0 0 0 0 0 0 0 6 10 0 2 0 0 0 0 0 0 0 0 0 0 0 0 0 0 0 0
3 2 1 0 8 5 7 3 0 0 2 3 8 10 15 0 0 0 0 0 0 1 4 1 0 23 3 0 0 0 0 0 0 0 0 0 0 0 0 0 0 0 0 0 0
5 1 2 2 4 4 2 0 0 0 0 0 8 9 2 0 0 0 0 0 0 1 9 2 0 4 0 0 0 1 0 0 0 0 0 0 0 0 0 0 0 0 0 0 0
5 3 1 1 0 2 1 0 0 0 0 0 9 12 0 0 0 0 0 0 0 0 1 19 0 0 3 0 0 0 0 0 0 0 0 0 0 0 0 0 0 0 0 0 0
3 2 0 0 1 0 0 0 0 0 0 0 11 18 2 0 0 0 0 0 0 0 0 0 0 0 0 1 0 0 0 0 0 0 0 0 0 0 0 0 0 0 0 0 0
11 4 0 0 2 0 0 0 0 0 0 4 10 6 1 0 0 0 0 0 0 0 0 0 0 17 0 0 0 0 0 0 0 0 0 0 0 0 0 0 0 0 0 0 0
16 8 2 2 2 0 4 0 0 0 0 12 18 9 2 0 0 0 0 0 0 9 5 6 32 12 0 1 0 0 0 0 0 0 0 0 0 0 0 0 0 0 0 0 0
25 13 8 5 8 4 1 0 0 0 0 54 32 6 0 0 0 0 0 0 0 21 5 37 23 1 2 3 0 0 0 0 0 0 0 0 0 0 0 0 0 0 0 0 0
18 5 6 14 2 1 0 0 0 0 0 0 0 0 0 0 0 0 0 0 0 14 3 0 0 1 4 1 0 0 0 0 0 0 0 0 0 0 0 0 0 0 0 0 0
6 2 18 18 0 0 0 0 1 0 0 0 0 0 0 0 0 0 0 0 0 2 3 0 0 0 0 0 0 0 0 0 0 0 0 0 0 0 0 0 0 0 0 0 0
0 13 18 17 0 0 0 0 0 0 1 0 0 0 0 0 0 0 0 0 0 0 0 0 0 0 0 0 0 0 0 0 0 0 0 0 0 0 0 0 0 0 0 0 0
5 1 6 4 0 0 0 0 0 0 0 0 1 0 0 3 0 0 0 0 0 0 0 0 0 0 0 0 0 0 0 0 0 0 0 0 0 0 0 0 0 0 0 0 0
0 0 0 0 0 0 0 0 0 1 0 0 0 0 0 0 0 0 0 0 0 0 0 0 0 0 0 0 0 0 0 0 0 0 0 0 0 0 0 0 0 0 0 0 1
0 0 0 0 0 0 0 0 1 2 0 0 0 0 0 0 0 0 1 0 0 0 0 0 0 0 0 0 0 0 0 0 0 0 0 0 0 0 0 0 0 0 0 0 0
0 0 0 0 0 0 0 0 0 0 0 0 0 0 0 0 0 0 0 0 0 0 0 0 0 0 0 0 0 0 0 0 0 0 0 0 0 0 0 0 0 0 0 0 0
0 0 0 0 0 0 0 0 0 0 0 0 0 0 0 0 0 0 0 0 0 0 0 0 0 0 0 0 0 0 0 0 0 0 0 0 0 0 0 0 0 0 0 0 0
0 0 0 0 0 0 0 0 0 0 0 0 0 0 0 0 0 0 0 0 0 0 0 0 0 0 0 0 0 0 0 0 0 0 0 0 0 0 2 2 0 0 0 1 1
0 0 0 0 0 0 0 0 0 2 0 0 0 0 0 0 0 0 0 0 0 0 0 0 0 0 0 0 0 0 0 0 0 0 0 0 0 0 0 1 0 0 0 0 0
0 0 0 0 0 0 0 0 0 0 0 0 0 0 0 2 0 0 0 0 0 0 0 0 0 0 0 0 0 0 0 0 0 0 0 0 0 0 0 1 0 0 0 0 0
0 0 0 0 0 0 0 0 0 0 0 0 0 0 0 0 0 0 0 0 0 0 0 0 0 0 0 0 0 0 0 0 0 0 0 0 0 0 0 0 0 0 0 0 0
0 0 0 0 0 0 0 0 0 0 0 0 0 0 0 0 0 0 0 0 0 0 0 0 0 0 0 0 0 0 0 0 0 0 0 0 0 0 0 0 1 0 0 0 0
0 0 0 0 0 0 0 0 0 0 0 0 0 0 0 0 0 0 0 0 0 0 0 0 0 0 0 0 0 0 0 0 0 0 0 0 0 0 0 0 0 0 0 0 0
0 0 1 0 0 0 0 0 0 0 0 0 0 0 0 0 0 0 0 0 0 0 0 0 0 0 0 0 0 0 0 0 0 0 0 0 0 0 0 0 0 0 0 0 0
0 0 0 0 0 0 0 0 0 0 0 0 0 0 0 0 1 0 0 0 0 0 0 0 0 0 0 0 0 0 0 0 0 0 0 0 0 0 0 0 0 0 0 0 0
0 0 3 0 0 0 0 0 0 0 0 1 0 0 0 0 0 0 1 0 0 0 0 0 0 0 0 0 0 0 0 0 0 0 0 0 0 0 0 0 0 0 0 0 0
CIN
-1 -1 -1 0 0 0 -1 -1 -1 0 0 -1 -1 0 -2 -2 -2 -3 0 0 0 0 0 0 0 -6 -2 -5 0 0 0 0 0 0 0 0 0 0 0 0 0 0 0 0 0
-1 0 0 -1 0 0 0 0 0 0 0 0 -1 -1 -1 -3 -2 0 0 0 0 0 0 0 0 -1 0 -3 -12 0 0 0 0 0 0 0 0 0 0 0 0 0 0 0 0
-2 -2 -3 -1 0 0 0 0 0 0 0 0 -2 -3 -2 -3 0 0 0 0 0 0 0 0 0 -1 -5 -1 -1 0 0 0 0 0 0 0 0 0 0 0 0 0 0 0 0
-1 -3 0 0 0 0 0 0 0 0 0 0 0 -2 -5 0 0 0 0 0 0 0 -3 0 0 0 -8 0 0 0 0 0 0 0 0 0 0 0 0 0 0 0 0 0 0
0 -2 0 0 0 0 0 0 0 0 0 0 0 -2 -4 0 0 0 0 0 0 -1 -1 0 0 0 -1 0 0 -1 0 0 0 0 0 0 0 0 0 0 0 0 0 0 0
0 -1 -1 0 0 -1 -1 0 0 0 0 0 0 -1 -1 0 0 0 0 0 0 0 -1 -1 0 0 -1 -2 0 0 0 0 0 0 0 0 0 0 0 0 0 0 0 0 0
0 -1 -1 -1 0 0 0 0 0 0 0 0 0 -1 0 0 0 0 0 0 0 0 0 0 0 0 0 -1 0 0 0 0 0 0 0 0 0 0 0 0 0 0 0 0 0
-1 -1 0 0 -1 0 0 0 0 0 0 0 -2 -3 0 0 0 0 0 0 0 0 0 0 -1 -3 0 0 0 0 -1 0 0 0 0 0 0 0 0 0 0 0 0 0 0
0 -1 -1 0 0 0 0 0 0 0 0 0 -1 -1 -1 0 0 0 0 0 0 -12 -12 -7 -3 -4 0 -2 0 0 0 0 0 0 0 0 0 0 0 0 0 0 0 0 0
0 0 -1 0 0 0 0 0 0 0 -2 -2 -3 -1 0 0 0 0 0 0 0 -4 -11 -9 -1 -3 -2 0 0 -2 0 0 0 0 0 0 0 0 0 0 0 0 0 0 0
0 0 0 0 0 0 0 0 0 0 0 0 0 0 0 0 0 0 0 0 0 -3 0 0 0 0 -1 0 -2 -6 0 0 0 0 0 0 0 0 0 0 0 0 0 0 0
0 0 0 0 0 0 0 0 -6 0 0 0 0 0 0 0 0 0 0 0 0 0 -3 0 -3 -4 0 0 0 0 0 0 0 0 0 0 0 0 0 0 0 0 0 0 0
0 0 0 0 0 0 0 0 0 0 0 0 0 0 0 0 0 0 0 0 0 0 0 0 0 0 0 0 -1 0 0 0 0 0 0 0 0 0 0 0 0 0 0 0 0
0 0 0 0 0 0 0 0 0 0 0 0 0 -1 0 -13 0 0 0 0 0 0 0 0 0 0 0 0 0 0 0 0 0 0 0 0 0 0 0 0 0 0 0 0 0
0 0 0 0 0 0 0 0 0 -8 0 0 0 0 0 0 0 0 0 0 0 0 0 0 0 0 0 0 0 -2 0 0 0 0 0 0 0 0 0 0 0 0 0 0 0
0 0 0 0 0 0 0 0 -7 -6 0 0 0 0 0 0 0 0 -4 0 0 0 0 0 0 0 0 0 0 0 0 0 0 0 0 0 0 0 0 0 0 0 0 0 0
0 0 0 0 0 0 0 0 0 -2 0 0 0 0 0 0 0 0 0 0 0 0 0 0 0 0 0 0 0 0 0 0 0 0 0 0 0 0 0 0 0 0 0 0 0
0 0 0 0 0 0 0 0 0 0 0 0 0 0 0 0 0 0 0 0 0 0 0 0 0 0 0 0 0 0 0 0 0 0 0 0 0 0 0 0 0 0 0 0 0
0 0 0 0 0 0 0 0 -1 0 0 0 0 0 0 0 0 0 0 0 0 0 0 0 0 -4 0 0 0 0 0 0 0 0 0 0 0 0 0 0 0 0 0 0 0
0 0 0 0 0 0 0 0 0 -1 0 0 0 -18 0 0 0 0 0 0 0 0 0 0 0 0 0 0 0 0 0 0 0 0 0 0 0 0 0 0 0 0 0 0 0
0 0 0 0 0 0 0 0 0 0 0 0 0 0 0 0 0 0 0 0 0 0 0 0 0 0 0 0 0 0 0 0 0 0 0 0 0 0 0 0 0 0 0 0 0
0 0 0 0 0 0 0 0 0 0 0 0 0 -2 0 0 0 0 0 0 0 0 0 0 0 0 0 0 0 0 0 0 0 0 0 0 0 0 0 0 0 0 0 0 0
0 0 0 0 0 0 0 0 0 0 0 0 0 0 -3 0 0 0 0 0 0 0 0 0 0 0 0 0 0 0 0 0 0 0 0 0 0 0 0 0 0 0 0 0 0
0 0 0 0 0 0 0 0 0 0 0 0 -1 0 0 0 0 0 0 0 0 0 0 0 0 0 0 0 0 0 0 0 0 0 0 0 0 0 0 0 0 0 0 0 0
0 0 -5 0 0 0 0 0 0 0 0 0 0 0 0 0 0 0 0 0 0 0 0 0 0 0 0 0 0 0 0 0 0 0 0 0 0 0 0 0 0 0 0 0 0
0 0 0 0 0 0 0 0 0 0 0 0 0 0 0 0 0 0 0 0 0 0 0 0 0 0 0 0 0 0 0 0 0 0 0 0 0 0 0 0 0 0 0 0 0
0 -1 -1 0 0 0 0 0 0 0 0 -6 0 0 0 0 0 0 -1 0 0 0 0 0 0 0 0 0 0 0 0 0 0 0 0 0 0 0 0 0 0 0 0 0 0
Wind_Speed
42 42 42 42 42 42 42 42 42 39 34 32 30 27 24 22 20 21 15 24 16 14 17 9 10 10 12 17 19 19 26 25 20 19 27 21 23 23 21 22 21 20 22 20 15
43 43 43 44 44 44 44 44 44 41 37 35 30 25 24 23 25 19 21 18 18 18 17 12 14 13 18 19 20 22 28 26 23 22 25 26 22 17 19 19 21 21 21 19 13
44 44 44 45 46 46 46 46 46 43 37 35 30 25 24 23 29 25 16 15 15 17 16 18 15 17 22 22 23 28 30 27 29 31 27 25 26 24 22 22 20 19 22 16 12
45 45 46 48 49 49 48 48 47 46 38 35 28 22 19 18 30 17 16 14 7 12 14 17 20 22 27 29 26 34 34 30 28 29 28 29 27 28 25 23 20 17 16 13 12
47 48 49 50 50 50 50 50 49 46 37 36 25 17 17 22 24 18 21 19 9 10 15 19 22 25 30 32 30 36 34 30 32 30 33 31 32 30 29 26 23 20 18 15 13
48 49 50 52 52 52 52 53 53 46 38 34 25 14 20 29 20 16 18 17 11 11 17 17 23 22 31 32 33 33 36 37 32 34 33 34 36 32 32 29 27 25 23 20 17
50 51 53 55 55 56 55 54 54 46 42 31 20 14 22 26 21 17 20 19 17 14 16 20 21 23 25 34 32 33 36 36 41 37 36 32 46 43 33 33 33 32 32 29 24
52 53 55 57 57 58 58 58 46 43 36 23 17 19 31 25 24 26 23 22 18 14 18 18 20 24 26 25 26 36 37 44 34 32 34 29 52 33 30 31 33 31 28 26 25
52 54 56 58 59 58 59 49 47 36 26 20 20 23 36 26 25 24 19 20 17 15 18 15 20 26 25 30 35 34 46 46 42 31 32 33 46 39 30 28 31 31 34 31 28
53 55 56 57 59 61 52 48 36 29 25 19 22 29 27 27 24 24 19 18 20 18 20 20 24 29 31 34 45 39 41 40 39 33 34 38 41 30 25 27 30 27 25 30 31
55 54 55 58 62 55 49 38 41 35 31 32 32 33 32 30 29 26 23 22 23 24 29 27 32 38 37 37 35 32 36 39 35 29 32 39 40 37 29 27 27 26 26 27 28
55 54 56 58 58 44 40 39 37 38 50 35 34 36 36 34 41 37 24 26 26 31 29 31 42 37 35 33 38 37 37 36 33 29 31 33 39 35 34 33 30 29 27 27 26
54 55 56 59 46 40 38 38 35 34 41 39 29 29 29 24 29 29 20 23 26 29 30 35 34 36 38 41 43 44 44 40 38 31 31 35 44 39 33 31 30 28 28 28 27
56 57 57 54 38 41 41 38 36 25 39 35 28 27 32 25 24 22 17 19 24 27 27 33 34 30 29 37 36 46 39 38 38 37 45 33 49 40 39 38 34 31 28 25 23
56 58 53 45 39 42 39 39 31 22 42 33 28 24 33 27 29 25 19 19 24 24 23 27 25 29 34 33 26 35 25 31 35 37 35 35 39 39 32 36 33 29 28 23 19
55 53 48 44 39 35 37 33 24 31 34 29 27 34 31 28 26 28 22 17 19 22 23 25 20 20 22 22 22 17 18 19 22 26 41 37 36 38 33 31 27 23 21 20 17
52 49 43 40 47 40 33 28 31 37 36 35 35 34 25 30 25 25 26 18 23 26 25 23 25 21 19 17 14 17 18 26 29 32 35 24 29 32 22 21 20 18 17 16 14
49 42 40 38 40 37 35 36 40 33 35 30 30 29 27 30 26 28 23 21 22 21 24 25 26 22 19 21 19 19 22 25 32 32 30 20 31 27 22 18 13 10 11 11 11
45 37 41 41 38 34 36 45 36 33 31 32 31 27 27 30 27 27 21 22 22 22 20 21 19 21 17 18 18 22 27 21 22 21 24 24 25 22 18 15 12 11 9 9 9
41 37 44 40 33 33 40 38 33 31 30 29 33 27 30 31 29 28 25 23 24 23 21 23 26 21 19 19 20 22 20 27 26 32 35 30 30 27 21 17 14 11 10 9 8
39 41 41 40 29 37 41 34 29 29 31 29 28 27 26 28 28 25 24 22 24 25 21 22 20 21 18 20 22 21 22 23 23 24 31 33 31 24 25 17 14 12 10 9 9
38 45 36 39 44 37 39 32 27 30 28 26 23 23 25 26 22 22 23 22 23 23 22 23 21 24 21 17 14 13 21 22 26 25 21 21 25 24 17 12 10 10 9 9 8
42 37 31 39 46 43 33 31 27 30 27 28 25 27 23 19 21 18 22 22 22 21 21 22 22 25 23 19 17 17 20 22 22 21 25 27 26 14 7 7 7 7 8 8 7
38 45 37 39 35 37 37 35 33 28 23 25 21 27 26 21 15 15 20 20 22 21 20 18 17 17 21 23 23 24 23 22 22 24 22 23 18 13 10 7 6 5 5 6 5
38 39 35 41 39 35 36 33 35 33 25 25 23 28 28 24 24 24 23 22 20 20 19 19 19 21 22 22 21 22 21 20 17 16 19 18 16 12 7 7 6 4 5 5 4
39 38 33 33 33 34 35 34 34 32 25 25 27 22 22 24 20 9 26 22 20 22 22 23 23 23 23 21 22 23 22 19 18 16 13 10 13 9 6 4 4 5 5 4 4
32 28 31 32 34 36 36 33 30 29 21 22 23 21 21 19 3 4 9 16 19 22 23 23 22 22 23 22 22 22 22 21 18 17 15 15 13 7 7 9 6 5 5 5 5
Wind_Direction
347 343 340 337 331 329 327 326 326 333 338 335 332 331 329 325 317 302 250 283 280 269 292 272 241 245 243 256 265 267 268 264 262 260 271 280 277 276 282 279 280 279 274 277 275
347 343 339 335 331 329 329 328 326 328 331 332 332 332 330 328 315 289 286 276 264 274 268 244 227 229 250 254 259 255 260 262 272 271 271 269 275 277 279 279 281 278 279 281 266
346 340 334 331 329 328 329 329 330 330 333 332 331 330 328 329 316 312 320 248 259 251 253 262 239 236 251 259 257 262 258 264 270 267 269 270 270 276 275 274 277 280 276 277 265
338 333 332 331 332 331 331 329 328 327 333 332 332 332 333 332 312 330 333 330 234 242 250 255 244 238 258 255 257 265 264 267 263 269 267 266 271 270 270 274 282 279 282 277 258
340 337 334 330 329 329 328 326 326 328 333 333 333 333 333 318 308 316 314 314 299 231 238 235 240 242 255 261 265 260 268 264 266 267 265 267 266 269 270 271 275 277 275 271 264
341 337 334 333 331 330 329 326 322 328 331 330 330 328 320 310 323 323 313 309 289 240 241 243 258 254 261 267 253 273 265 267 268 263 265 265 266 266 267 266 270 270 269 267 263
342 339 337 334 334 331 329 327 323 325 325 325 325 316 307 305 319 318 311 304 292 246 254 244 271 248 269 270 268 268 270 269 263 264 267 269 265 262 265 267 266 267 266 264 261
344 343 341 338 335 333 331 326 330 327 325 324 320 312 304 314 308 300 298 296 293 260 271 249 255 261 270 274 278 262 268 264 266 265 266 263 263 270 263 262 262 262 262 260 257
347 344 341 340 339 337 332 333 330 331 331 326 323 313 308 318 308 303 290 290 288 274 279 258 246 264 259 264 267 265 264 264 269 265 265 256 268 268 270 264 265 264 256 257 259
347 344 343 342 340 337 338 336 340 342 340 337 324 315 312 312 314 307 296 284 285 271 272 264 261 258 256 254 259 265 265 268 266 266 259 260 264 272 271 266 264 265 263 257 256
347 347 346 344 341 342 343 345 340 332 337 322 315 305 311 311 309 302 297 283 279 267 262 263 259 254 253 254 262 270 264 266 267 270 261 259 262 263 268 266 264 265 264 261 260
349 348 346 345 344 349 352 348 345 332 320 321 312 306 303 301 294 289 283 274 271 264 261 267 258 262 264 263 259 262 264 266 270 269 265 267 264 265 264 265 267 267 267 267 264
351 350 348 346 349 354 353 350 346 342 325 327 328 328 324 321 308 300 281 276 271 266 260 263 273 265 261 260 260 261 261 263 265 270 271 271 266 264 267 268 269 271 271 270 265
354 352 350 352 357 355 351 351 348 351 331 336 341 342 339 332 320 323 300 288 280 271 269 270 267 272 264 261 259 261 263 263 262 263 263 265 265 266 265 265 266 268 270 269 265
356 355 357 3 359 355 353 353 356 360 330 346 347 351 340 337 323 322 316 295 284 278 273 275 278 266 263 264 262 264 265 261 259 259 264 262 266 268 269 266 265 267 267 267 267
359 1 3 6 4 359 352 354 8 351 340 349 353 342 340 341 336 321 316 309 301 287 279 271 290 286 280 270 257 267 269 271 267 260 259 259 259 268 268 271 269 269 268 265 261
2 5 10 11 3 1 5 13 4 358 357 351 346 344 345 335 334 333 326 317 299 281 276 276 273 280 284 278 270 256 250 260 260 257 263 263 258 268 281 285 277 266 268 265 258
5 10 15 15 11 16 24 23 10 7 6 2 2 1 354 340 326 318 319 317 326 306 282 276 270 276 280 269 267 253 254 261 259 259 262 266 263 270 278 287 289 280 272 266 258
9 16 17 15 18 25 25 16 16 13 7 3 360 0 359 349 333 320 313 313 318 324 295 291 283 284 286 278 270 263 257 267 271 274 267 264 273 279 282 279 275 274 266 266 262
14 16 15 16 24 29 26 24 25 24 19 21 12 17 8 355 339 327 314 307 304 313 313 296 277 294 287 282 279 271 267 264 264 262 261 267 268 271 270 268 266 263 259 253 257
18 17 19 18 29 28 20 23 27 26 24 23 22 20 19 8 353 338 323 310 312 305 304 301 291 288 291 286 276 271 268 269 266 269 263 265 268 277 273 264 256 253 252 245 245
19 15 21 22 24 26 23 26 26 24 28 29 30 24 16 10 7 355 332 322 318 317 303 302 289 278 285 305 311 295 274 271 264 264 271 275 274 288 273 256 248 244 244 245 244
16 17 26 26 19 21 25 25 25 19 22 22 24 21 16 16 11 15 343 326 324 325 315 308 292 280 278 282 301 292 291 282 272 272 268 267 273 292 280 256 249 233 235 237 239
18 14 20 26 30 23 21 20 16 19 23 22 29 26 26 34 43 27 4 331 318 318 324 322 310 297 278 278 285 282 288 288 275 265 266 269 271 270 259 244 233 221 215 217 222
22 19 21 14 19 21 22 21 19 21 30 32 35 28 32 36 32 20 14 354 331 320 321 322 306 300 293 290 289 283 282 285 280 275 271 270 270 260 244 224 224 200 204 197 204
20 18 21 19 20 21 22 22 22 23 34 35 31 32 41 35 36 47 342 358 341 329 327 313 303 303 295 293 288 278 280 279 278 281 289 294 274 257 230 189 180 157 151 158 203
24 26 23 20 21 22 22 22 25 27 42 40 35 40 41 35 359 73 54 21 359 340 327 320 313 304 294 294 287 275 278 271 273 278 280 275 280 245 221 212 201 199 226 227 241